Regional Weather Roundup
Issued by NWS

Home | Current Version | Previous Version | Graphics & Text | Print | Product List | Glossary On
Versions: 1 2 3 4 5 6 7 8 9 10 11 12 13 14 15 16 17 18 19 20 21 22 23 24 25 26 27 28 29 30 31 32 33 34 35 36 37 38 39 40 41 42 43 44 45 46 47 48 49 50
000
ASUS43 KFSD 200410
RWRSD

WEATHER ROUNDUP FOR SOUTH DAKOTA
NATIONAL WEATHER SERVICE SIOUX FALLS SD
1100 PM CDT SAT APR 19 2014

NOTE: "FAIR" INDICATES FEW OR NO CLOUDS BELOW 12,000 FEET WITH NO
SIGNIFICANT WEATHER AND/OR OBSTRUCTIONS TO VISIBILITY.


SDZ001>005-009-010-012>017-200500-
NORTHWEST AND NORTH CENTRAL SOUTH DAKOTA

CITY           SKY/WX    TMP DP  RH WIND       PRES   REMARKS
BUFFALO          N/A     49  26  41 SE8       29.91S
FAITH            N/A     48  28  46 S12       29.99S
MOBRIDGE       CLEAR     43  28  55 CALM      29.97R
$$

SDZ012>016-024>037-041>051-057-063-072>074-200500-
SOUTHWEST AND SOUTH CENTRAL SOUTH DAKOTA

CITY           SKY/WX    TMP DP  RH WIND       PRES   REMARKS
RAPID CTY ARPT PTCLDY    45  30  55 CALM      30.00S
PIERRE         MOCLDY    46  28  49 NE5       30.00S
CUSTER         CLEAR     41  28  60 CALM      30.05S
ELLSWORTH AFB  PTCLDY    50  28  41 S8        30.00S
PHILIP         PTCLDY    48  27  44 E5        30.01S
PINE RIDGE     PTCLDY    46  30  53 NE7       30.02R
SPEARFISH      FAIR      45  32  61 SW6       29.99F
WINNER         FAIR      51  18  27 S8        30.02S
$$

SDZ004>011-016>023-039-040-200500-
NORTHEAST SOUTH DAKOTA

CITY           SKY/WX    TMP DP  RH WIND       PRES   REMARKS
ABERDEEN       PTCLDY    40  25  55 SW6       29.99S
WATERTOWN      MOCLDY    47  32  56 S5        30.02R
SISSETON         N/A     43  35  73 CALM      29.98S
$$

SDZ017-020-022-023-036>040-048>070-200500-
SOUTHEAST SOUTH DAKOTA

CITY           SKY/WX    TMP DP  RH WIND       PRES   REMARKS
SIOUX FALLS    CLOUDY    57  40  52 N3        30.02S
HURON          MOCLDY    51  30  44 SW6       30.01S
CHAMBERLAIN      N/A     52  25  35 E5        30.02F
MITCHELL         N/A     50  27  40 CALM      30.02S
YANKTON        PTCLDY    57  34  41 N7        30.02S
$$

ABBREVIATIONS USED IN REMARKS
   TC - TEMPERATURE IN CELSIUS
  WCI - WIND CHILL INDEX
   HX - HEAT INDEX
  VSB - VISIBILITY




USA.gov is the U.S. government's official web portal to all federal, state and local government web resources and services.